RH
89 88 88 92 95 94 92 94 89 87 88 81 73 52 35 30 26 39 37 25 28 23 14 21 18 14 13 12 9 9 14 15 16 13 14 11 17 54 50 61 54 72 88 96 99
84 85 85 85 86 85 85 89 86 84 90 84 81 67 40 33 52 35 22 23 21 16 20 13 12 11 13 11 9 11 13 16 10 12 14 12 18 26 49 52 67 58 84 95 92
83 79 77 80 83 84 86 85 86 88 88 85 81 76 50 36 40 25 22 24 17 11 24 15 10 10 12 10 10 10 13 12 10 12 12 16 21 25 47 69 66 74 85 91 92
88 87 84 68 61 65 75 87 87 89 90 83 81 76 60 54 27 31 22 20 16 18 22 11 9 11 13 12 9 11 10 10 10 11 14 21 23 26 50 48 60 75 77 74 82
87 91 87 86 74 56 65 88 91 92 90 82 80 77 65 32 24 27 21 18 17 21 19 10 11 12 15 12 10 11 10 11 10 11 15 18 25 35 55 72 68 69 65 68 82
86 89 93 88 86 76 57 74 88 90 87 83 79 78 61 46 18 24 29 22 18 17 14 10 11 12 15 15 12 13 13 12 10 11 16 24 34 40 50 56 66 64 71 73 72
80 84 86 87 88 86 71 54 80 81 84 83 82 86 57 47 18 16 25 22 17 14 13 12 12 14 14 17 11 11 14 12 12 12 18 25 31 46 46 48 56 58 61 60 64
77 78 82 86 88 88 81 55 62 70 86 77 84 79 59 23 23 22 20 21 15 13 14 13 13 15 16 15 15 14 13 16 16 16 28 35 65 38 42 48 52 46 51 48 54
83 78 75 81 85 86 84 60 56 74 83 81 82 69 41 22 24 18 18 20 16 15 15 14 14 16 14 18 17 14 16 17 21 17 30 40 66 43 43 35 42 42 41 48 56
73 84 77 75 79 83 84 58 35 83 79 77 61 43 34 20 16 17 16 20 14 14 16 17 15 18 16 18 23 17 20 17 23 18 18 46 64 69 66 30 32 31 35 37 45
74 73 86 78 74 79 82 64 43 72 64 40 32 23 13 19 14 13 13 19 14 16 22 17 21 22 17 15 13 12 17 21 17 18 19 22 55 73 70 30 31 29 30 30 33
68 70 79 84 76 76 81 64 28 43 49 25 29 26 23 20 18 15 13 24 21 23 19 20 25 18 15 14 13 12 14 16 15 17 16 13 34 61 70 35 27 29 35 30 30
70 67 69 87 85 79 72 56 44 43 47 21 14 16 15 16 22 17 11 21 22 24 22 24 20 16 16 15 14 13 15 14 16 19 15 14 14 42 39 26 27 26 32 30 28
69 69 76 91 81 59 48 40 42 42 53 15 12 18 14 15 20 15 11 16 21 23 20 19 16 16 16 16 13 16 11 15 19 18 19 17 27 22 23 23 27 26 28 29 29
74 69 68 85 69 55 67 74 48 57 42 7 8 14 16 20 15 18 13 16 22 19 18 22 19 18 19 14 12 15 15 17 17 17 20 20 23 15 16 18 23 27 27 26 26
79 74 74 80 91 70 62 79 59 62 40 10 22 24 22 22 19 14 16 14 16 18 16 17 13 14 16 13 12 12 17 19 19 19 32 26 20 18 17 16 17 20 25 25 25
80 75 80 65 71 64 60 79 74 49 10 10 23 26 25 26 23 22 19 21 24 29 27 18 16 14 13 15 13 14 19 30 32 32 40 22 21 20 18 22 28 24 27 43 25
82 78 86 68 73 74 79 95 49 20 22 9 10 18 31 26 26 24 21 22 20 19 24 25 27 17 13 15 16 18 19 34 45 55 43 46 32 16 15 15 12 12 27 30 25
81 95 84 78 76 84 88 97 50 19 11 16 14 22 23 26 23 25 21 22 20 20 26 26 23 14 14 13 15 19 24 17 26 41 62 75 32 13 13 13 10 10 12 14 14
100 95 80 70 67 82 98 94 54 20 13 12 16 14 22 26 26 24 23 18 20 18 17 20 26 16 14 13 15 17 14 33 28 44 55 32 27 21 20 13 11 11 13 14 16
100 98 69 67 75 97 94 74 45 28 20 19 21 22 16 18 23 26 24 18 18 17 16 18 24 23 18 18 18 18 22 26 30 28 53 47 32 22 23 13 13 13 13 13 16
95 98 68 69 97 91 91 54 41 30 24 22 19 19 18 19 25 29 25 20 15 16 20 18 24 33 23 15 14 16 20 21 37 36 36 56 35 17 21 16 15 13 12 14 15
96 96 64 73 93 95 72 65 40 37 31 28 25 20 18 30 60 50 37 22 18 19 21 20 25 39 30 22 18 20 17 21 26 31 42 67 40 18 15 14 13 14 14 15 17
98 99 94 90 57 66 76 66 53 34 32 25 21 19 21 31 43 63 66 27 26 18 32 34 25 29 42 28 24 25 19 17 28 45 44 45 33 29 21 22 17 15 15 14 17
98 98 86 96 91 59 55 45 52 43 32 30 26 25 23 34 48 63 64 60 39 32 21 33 34 28 24 19 19 19 19 18 20 36 42 39 36 26 20 22 23 18 18 14 15
100 97 72 54 72 68 60 56 43 37 33 34 33 23 22 28 40 57 70 68 49 38 29 30 36 33 37 24 19 22 18 16 17 17 17 19 20 15 15 19 24 24 16 18 18
98 79 62 62 74 77 70 56 48 36 31 25 26 27 28 23 29 53 70 78 73 60 51 37 40 40 46 30 27 35 24 17 16 15 17 23 19 14 14 13 13 17 15 17 22
Wind_Speed
17 16 16 15 15 19 21 21 22 25 25 26 28 30 30 33 38 18 9 4 9 7 7 8 10 12 12 13 16 13 11 12 4 13 12 13 12 4 13 17 14 20 10 8 13
18 19 19 19 19 20 22 22 22 24 26 26 28 31 31 35 28 18 13 9 8 7 8 10 9 10 10 14 7 9 11 12 6 11 14 13 12 16 9 10 12 15 9 8 10
18 21 21 21 22 23 23 21 22 23 25 26 28 31 31 30 12 2 10 8 7 10 11 13 9 8 13 15 9 13 12 7 13 7 12 8 6 7 12 6 9 9 4 1 13
15 18 18 16 19 22 24 21 21 21 24 24 26 29 33 10 6 4 5 6 9 10 10 11 8 11 16 12 12 7 13 8 9 5 10 9 2 4 12 6 7 10 9 7 12
17 17 18 19 18 20 20 19 19 21 22 23 24 26 20 7 13 5 4 7 11 9 13 10 10 11 16 12 8 11 14 11 11 6 4 11 6 14 14 15 13 12 10 8 14
19 18 18 19 20 20 22 21 21 21 22 22 22 23 11 16 12 4 6 11 12 13 13 12 10 11 9 15 13 7 11 13 14 7 2 4 8 18 15 12 11 10 12 9 12
20 19 19 20 21 21 22 22 22 21 21 20 19 14 11 21 11 5 10 14 14 15 13 10 8 8 13 14 12 11 14 16 13 9 3 5 7 6 0 10 8 8 11 10 14
19 20 20 20 21 23 23 24 23 21 21 20 17 8 10 18 17 21 16 17 16 15 14 8 6 10 12 15 16 16 18 16 4 9 8 12 7 13 11 15 13 15 14 11 10
21 20 21 21 21 24 26 27 24 20 21 17 8 8 11 8 16 19 19 20 17 14 14 11 8 12 13 14 13 15 15 9 6 11 11 8 5 15 16 14 17 18 15 15 12
23 20 19 21 21 23 28 28 18 20 12 9 12 8 10 13 16 18 21 22 16 13 12 12 8 12 13 12 13 7 13 16 7 7 12 17 9 4 21 10 11 15 17 16 18
21 22 19 18 20 20 23 14 6 6 10 9 9 10 17 12 1 13 22 21 14 15 16 17 12 15 18 18 19 16 8 16 7 4 6 17 22 15 8 11 13 13 12 11 12
20 21 18 16 17 17 16 7 9 7 12 17 23 24 31 24 8 13 23 17 18 20 19 17 18 18 18 18 18 16 12 18 9 12 8 11 17 23 22 19 14 13 13 12 14
21 20 17 13 15 16 16 24 19 16 8 18 22 22 25 25 21 14 22 23 20 20 20 20 18 19 16 19 15 12 16 14 9 6 11 12 12 22 20 17 16 14 16 13 15
22 18 13 9 11 14 13 17 16 11 7 13 15 10 26 21 25 27 27 24 18 23 23 20 21 15 10 13 13 15 15 5 12 10 8 5 9 8 14 14 14 14 15 17 18
23 18 10 13 16 10 8 11 4 3 7 6 22 9 8 23 6 25 32 24 25 23 15 20 19 18 14 16 17 14 2 13 12 13 13 7 9 9 12 12 16 16 14 15 17
25 21 14 11 16 22 14 13 3 5 12 7 9 11 11 20 26 9 25 22 23 24 22 22 19 19 16 16 17 13 9 10 12 11 9 13 10 5 6 8 8 17 12 15 16
27 23 18 15 12 13 14 3 7 13 8 13 14 10 14 15 23 23 23 25 23 22 21 22 24 18 15 18 17 10 9 8 10 9 7 11 9 11 10 5 7 11 12 16 16
26 24 20 18 20 11 4 7 16 21 30 5 12 18 17 15 19 22 22 23 25 24 16 17 17 23 15 19 18 15 16 8 7 4 7 12 7 7 14 12 4 7 21 25 18
25 24 22 21 23 14 3 10 17 27 21 28 24 7 14 17 17 18 24 22 23 26 21 18 22 20 17 17 18 15 16 16 18 5 3 5 21 9 8 12 7 6 5 3 6
27 18 24 22 24 15 4 10 24 28 30 27 26 22 19 16 18 17 23 18 23 26 24 19 13 21 21 18 18 17 12 11 11 10 7 12 16 7 3 8 8 4 7 3 4
25 5 15 28 24 6 13 21 27 33 26 31 24 23 21 26 16 20 22 22 25 24 24 20 14 11 17 21 18 13 12 7 16 10 6 5 5 10 5 8 5 7 5 4 5
12 8 20 36 10 8 17 39 30 23 30 29 26 25 23 19 23 16 22 18 16 25 27 25 11 13 17 14 17 17 16 17 10 9 6 3 8 10 14 7 5 3 3 6 5
7 5 24 35 14 17 22 31 32 29 31 31 28 27 23 16 12 16 21 17 16 18 25 20 18 10 17 16 19 19 18 13 15 10 12 4 7 9 9 8 6 5 7 10 7
6 7 6 13 18 27 27 32 32 32 29 30 29 28 21 20 10 13 19 15 4 9 6 8 13 21 15 14 9 14 20 17 18 9 11 8 9 14 12 4 8 9 9 11 12
6 6 9 14 20 30 26 19 34 27 31 30 28 30 25 21 10 16 21 28 11 12 8 6 16 18 21 20 20 17 20 20 20 21 17 13 20 20 19 15 4 8 5 6 4
6 5 13 12 23 27 26 30 31 28 26 32 29 30 26 22 14 18 11 15 11 10 11 5 12 15 23 21 19 22 22 20 21 22 20 17 17 15 15 10 8 7 9 6 7
8 14 11 17 23 20 25 31 35 27 22 28 32 24 25 21 11 2 5 5 11 10 8 11 10 17 19 19 13 21 21 19 16 18 17 17 16 14 13 12 10 14 10 10 7
Wind_Direction
313 310 309 315 323 319 316 320 323 325 329 332 334 334 335 331 323 322 254 253 203 263 240 256 224 240 247 260 261 274 271 276 309 345 345 337 352 76 266 56 30 16 24 86 97
306 310 304 304 308 310 313 316 316 319 323 328 331 332 333 332 319 280 256 244 262 227 217 218 213 222 251 252 242 240 268 317 345 10 340 328 11 351 68 38 13 350 11 87 121
306 303 301 300 296 297 297 305 311 314 318 324 328 332 332 330 301 78 181 227 235 201 245 267 275 263 263 262 249 256 256 321 318 51 316 326 345 358 58 60 177 147 268 123 87
315 313 317 316 304 298 294 295 303 309 312 319 325 332 331 318 292 123 179 220 203 194 250 247 242 249 249 261 224 265 269 278 318 345 317 348 291 48 60 97 157 132 161 159 122
309 313 309 315 317 316 309 295 297 304 308 314 320 332 343 276 262 197 227 205 194 202 234 222 231 236 264 301 266 248 263 295 297 320 268 332 320 57 91 107 116 146 166 116 98
302 303 307 308 311 316 316 306 296 297 302 309 315 327 296 272 264 246 203 193 202 210 231 232 247 311 321 281 287 270 306 284 278 289 352 28 8 8 107 111 132 132 115 117 131
293 299 302 303 307 311 314 310 299 296 298 302 310 318 266 249 264 280 219 217 212 213 232 234 274 291 289 298 264 276 275 271 246 243 154 114 6 338 352 130 126 133 129 129 137
286 293 299 303 306 309 313 309 299 290 293 297 304 285 259 255 276 244 227 225 221 222 243 285 288 271 276 285 290 276 258 262 174 290 96 81 281 294 281 143 155 127 143 145 149
289 284 292 300 306 310 313 307 296 288 285 290 285 215 266 263 226 232 220 218 213 223 229 242 256 260 269 254 262 253 254 245 253 241 159 120 237 297 285 171 157 159 165 157 170
285 290 283 291 301 309 312 310 290 283 289 244 249 270 247 247 233 218 214 217 205 211 216 230 240 243 235 249 248 270 282 297 209 203 193 170 143 233 285 202 185 166 160 158 154
290 282 282 287 298 309 320 329 225 192 211 231 190 232 300 216 346 213 201 208 217 207 215 219 229 235 234 238 253 282 278 260 176 264 246 255 153 175 241 220 185 168 156 163 155
281 290 285 280 293 299 304 273 317 346 292 254 251 252 255 276 273 224 190 199 213 218 213 234 224 241 241 256 266 253 273 277 161 197 228 275 151 166 184 213 183 179 155 172 160
274 287 283 276 292 288 257 256 280 320 275 280 246 243 239 229 238 238 197 204 208 223 219 226 235 227 231 249 249 256 256 258 317 257 271 261 266 160 194 181 175 187 166 198 167
263 274 278 271 277 253 249 275 259 285 278 259 243 238 223 222 236 235 205 210 226 221 228 238 235 255 225 251 237 245 234 238 256 272 268 6 291 296 190 171 181 180 186 181 177
260 260 261 226 305 282 25 347 115 216 277 241 220 143 199 200 155 211 229 199 216 222 220 234 245 239 232 233 228 240 313 278 256 270 290 271 260 230 216 194 194 186 195 187 181
251 251 247 238 248 259 302 330 161 227 241 246 142 181 198 205 220 232 204 214 223 229 231 239 235 233 217 241 244 227 196 234 258 265 267 278 262 247 211 287 252 184 176 202 189
244 243 235 227 233 256 256 313 198 224 203 248 173 186 211 206 214 237 205 210 207 215 228 226 238 229 220 229 235 224 231 241 236 233 237 267 238 241 172 127 296 162 180 245 199
242 237 233 230 233 248 34 214 219 230 234 163 225 196 208 212 209 225 220 212 208 219 216 222 226 232 210 226 232 198 234 229 259 253 275 354 281 249 183 175 220 164 181 207 204
232 230 229 216 225 231 203 223 222 232 216 246 268 259 215 217 227 210 229 212 208 219 215 217 229 222 213 217 246 215 216 245 265 140 85 193 259 211 176 179 163 212 176 221 214
214 217 223 206 212 216 197 243 233 238 246 257 244 252 266 237 223 210 221 219 214 211 228 240 225 230 212 210 214 244 245 236 232 236 234 240 232 223 235 203 164 141 207 178 111
204 212 202 192 185 213 213 222 234 229 236 240 260 274 270 255 261 223 226 224 207 219 217 231 240 239 254 208 214 214 237 212 244 235 212 247 283 35 354 209 142 173 146 124 102
193 216 173 170 191 201 220 217 236 239 233 247 252 257 265 272 265 254 233 233 221 209 212 221 229 243 267 192 215 243 224 225 245 248 261 227 256 152 192 259 267 151 205 148 143
197 170 185 170 197 211 224 235 238 238 233 238 242 242 252 274 293 295 269 261 240 209 215 199 226 229 250 215 221 220 238 225 264 237 231 188 245 202 192 217 270 187 231 159 167
175 172 166 199 211 207 208 227 235 235 240 239 247 248 245 255 243 287 307 251 258 217 242 214 205 217 229 240 223 220 235 221 226 230 240 260 245 268 289 318 285 233 224 191 174
177 195 184 187 204 213 206 228 230 238 224 238 245 253 238 248 256 278 291 294 294 290 208 165 224 210 240 240 238 216 230 230 247 209 234 216 230 229 228 206 213 334 353 154 149
170 175 192 199 201 209 204 220 232 225 227 216 235 239 246 243 212 244 293 260 250 298 234 225 220 222 249 255 239 260 259 229 221 244 253 248 243 239 249 146 143 201 200 209 202
143 205 188 206 190 201 215 220 226 228 226 230 225 236 241 243 227 215 27 317 335 332 315 228 217 221 230 235 243 252 245 254 244 230 239 244 252 251 258 270 254 199 191 183 159